TimeCDT,TemperatureF,Dew PointF,Humidity,Sea Level PressureIn,VisibilityMPH,Wind Direction,Wind SpeedMPH,Gust SpeedMPH,PrecipitationIn,Events,Conditions,WindDirDegrees,DateUTC
12:40 AM,66.2,62.6,88,29.77,7.0,West,12.7,-,0.00,Rain,Light Rain,270,2013-10-06 05:40:00
12:46 AM,66.2,62.6,88,29.77,7.0,West,13.8,-,0.01,Rain,Light Rain,270,2013-10-06 05:46:00
12:51 AM,66.9,62.1,84,29.74,9.0,West,12.7,-,0.01,,Overcast,270,2013-10-06 05:51:00
1:51 AM,62.1,57.0,84,29.75,9.0,West,16.1,23.0,N/A,,Overcast,280,2013-10-06 06:51:00
2:09 AM,60.8,53.6,77,29.77,9.0,West,10.4,-,N/A,,Overcast,280,2013-10-06 07:09:00
2:51 AM,60.1,54.0,80,29.76,10.0,West,13.8,-,N/A,,Overcast,260,2013-10-06 07:51:00
3:24 AM,57.2,51.8,82,29.78,10.0,West,10.4,-,0.00,Rain,Light Rain,270,2013-10-06 08:24:00
3:51 AM,55.9,52.0,87,29.76,4.0,WSW,6.9,-,0.00,,Light Drizzle,250,2013-10-06 08:51:00
4:51 AM,55.0,51.1,86,29.78,10.0,West,6.9,-,0.04,Rain,Light Rain,260,2013-10-06 09:51:00
5:51 AM,55.0,51.1,86,29.78,6.0,SW,8.1,-,0.02,,Light Drizzle,220,2013-10-06 10:51:00
6:51 AM,54.0,50.0,86,29.76,10.0,SW,6.9,-,0.00,,Overcast,220,2013-10-06 11:51:00
7:51 AM,54.0,51.1,90,29.75,10.0,SW,8.1,-,N/A,,Mostly Cloudy,230,2013-10-06 12:51:00
8:51 AM,54.0,44.1,69,29.76,10.0,WSW,9.2,-,N/A,,Mostly Cloudy,240,2013-10-06 13:51:00
9:51 AM,55.0,46.9,74,29.75,10.0,WSW,9.2,-,N/A,,Mostly Cloudy,240,2013-10-06 14:51:00
10:51 AM,57.0,43.0,59,29.75,10.0,SW,10.4,-,N/A,,Scattered Clouds,220,2013-10-06 15:51:00
11:51 AM,60.1,42.1,51,29.74,10.0,SW,10.4,-,N/A,,Scattered Clouds,230,2013-10-06 16:51:00
12:51 PM,61.0,41.0,48,29.71,10.0,SW,11.5,-,N/A,,Scattered Clouds,220,2013-10-06 17:51:00
1:51 PM,61.0,43.0,52,29.69,10.0,WSW,13.8,-,N/A,,Mostly Cloudy,240,2013-10-06 18:51:00
2:51 PM,60.1,39.9,47,29.70,10.0,WSW,13.8,-,N/A,,Mostly Cloudy,250,2013-10-06 19:51:00
3:51 PM,59.0,39.0,48,29.69,10.0,SW,15.0,-,N/A,,Mostly Cloudy,230,2013-10-06 20:51:00
4:51 PM,57.0,37.9,49,29.72,10.0,WSW,13.8,-,N/A,,Overcast,250,2013-10-06 21:51:00
5:51 PM,53.1,39.0,59,29.75,10.0,West,16.1,20.7,N/A,,Overcast,260,2013-10-06 22:51:00
6:51 PM,51.1,37.9,61,29.77,10.0,West,13.8,-,N/A,,Mostly Cloudy,260,2013-10-06 23:51:00
7:51 PM,51.1,37.9,61,29.78,10.0,WSW,9.2,-,N/A,,Mostly Cloudy,240,2013-10-07 00:51:00
8:51 PM,50.0,37.0,61,29.78,10.0,West,11.5,-,N/A,,Scattered Clouds,260,2013-10-07 01:51:00
9:51 PM,48.9,37.0,64,29.78,10.0,West,5.8,-,N/A,,Partly Cloudy,260,2013-10-07 02:51:00
10:51 PM,48.0,37.9,68,29.79,10.0,WSW,5.8,-,N/A,,Mostly Cloudy,240,2013-10-07 03:51:00
11:51 PM,48.0,37.9,68,29.78,10.0,West,9.2,-,N/A,,Mostly Cloudy,270,2013-10-07 04:51:00